EW7070 Weather Reports


time (UTC)temp
F
wind
direction
speed
knots
gust
knots
rain 1hr
in
rain 24hr
in
rain mn
in
humidity
%
barometer
mb
20260904175553 68 253 1.7 6.1 0.00 0.00 0.00 60 1013.8
20260904175051 68 256 1.7 6.1 0.00 0.00 0.00 59 1013.9
20260904174544 68 262 0.9 4.3 0.00 0.00 0.00 59 1013.9
20260904174040 68 22 0.9 2.6 0.00 0.00 0.00 59 1013.9
20260904173530 67 216 0.9 4.3 0.00 0.00 0.00 59 1013.8
20260904173300 67 164 0.9 4.3 0.00 0.00 0.00 59 1013.8
20260904172526 67 274 1.7 4.3 0.00 0.00 0.00 59 1014.0
20260904172014 67 138 1.7 4.3 0.00 0.00 0.00 57 1013.9
20260904171509 67 250 1.7 4.3 0.00 0.00 0.00 58 1013.8
20260904170959 68 223 1.7 2.6 0.00 0.00 0.00 60 1013.9
20260904170726 68 237 1.7 6.1 0.00 0.00 0.00 57 1014.1
20260904165953 68 162 1.7 6.1 0.00 0.00 0.00 57 1014.2
20260904165434 68 187 0.9 4.3 0.00 0.00 0.00 58 1014.4
20260904165425 68 280 0.9 4.3 0.00 0.00 0.00 59 1014.3
20260904165036 68 351 1.7 3.5 0.00 0.00 0.00 59 1014.5
20260904163924 67 269 1.7 4.3 0.00 0.00 0.00 58 1014.5
20260904163427 68 195 1.7 3.5 0.00 0.00 0.00 57 1014.5
20260904162900 68 246 1.7 5.2 0.00 0.00 0.00 58 1014.5
20260904162358 68 235 1.7 5.2 0.00 0.00 0.00 57 1014.6
20260904161846 67 295 1.7 5.2 0.00 0.00 0.00 57 1014.5
20260904161343 68 253 2.6 5.2 0.00 0.00 0.00 56 1014.6
20260904161319 68 255 2.6 5.2 0.00 0.00 0.00 57 1014.6
20260904160249 68 151 1.7 5.2 0.00 0.00 0.00 55 1014.6
20260904155724 69 195 1.7 5.2 0.00 0.00 0.00 54 1014.7
20260904155155 69 213 0.9 4.3 0.00 0.00 0.00 55 1014.7
20260904154647 69 224 0.9 3.5 0.00 0.00 0.00 59 1014.6
20260904154118 68 113 1.7 6.1 0.00 0.00 0.00 58 1014.6
20260904153616 68 237 2.6 7.8 0.00 0.00 0.00 56 1014.7
20260904153104 68 278 2.6 7.8 0.00 0.00 0.00 58 1014.7
20260904152604 68 236 2.6 7.0 0.00 0.00 0.00 58 1014.8
20260904152059 68 216 2.6 7.0 0.00 0.00 0.00 57 1014.9
20260904151555 68 268 2.6 7.8 0.00 0.00 0.00 56 1014.9
20260904151044 67 240 2.6 7.8 0.00 0.00 0.00 57 1015.0
20260904150539 67 206 2.6 5.2 0.00 0.00 0.00 59 1015.0
20260904150040 67 297 2.6 5.2 0.00 0.00 0.00 59 1015.0
20260904145533 67 280 2.6 7.0 0.00 0.00 0.00 59 1015.0
20260904145033 67 289 2.6 7.0 0.00 0.00 0.00 59 1015.1
20260904144531 67 301 1.7 6.1 0.00 0.00 0.00 58 1015.1
20260904144033 67 280 1.7 6.1 0.00 0.00 0.00 58 1015.0
20260904143509 67 264 1.7 7.8 0.00 0.00 0.00 57 1015.2
20260904143224 67 201 0.9 7.0 0.00 0.00 0.00 60 1015.1
20260904142722 67 320 0.9 4.3 0.00 0.00 0.00 60 1015.1
20260904141951 67 294 0.9 3.5 0.00 0.00 0.00 62 1015.2
20260904141448 67 262 1.7 4.3 0.00 0.00 0.00 57 1015.2
20260904140918 67 238 2.6 4.3 0.00 0.00 0.00 60 1015.4
20260904140907 67 159 1.7 4.3 0.00 0.00 0.00 59 1015.5
20260904135844 67 307 1.7 5.2 0.00 0.00 0.00 59 1015.5
20260904135328 67 253 1.7 5.2 0.00 0.00 0.00 59 1015.7
20260904135058 67 144 1.7 5.2 0.00 0.00 0.00 58 1015.9
20260904134300 67 125 1.7 5.2 0.00 0.00 0.00 56 1015.9
20260904133757 67 29 1.7 5.2 0.00 0.00 0.00 57 1015.9
20260904133515 66 148 1.7 4.3 0.00 0.00 0.00 65 1016.0
20260904133015 66 133 1.7 4.3 0.00 0.00 0.00 59 1016.1
20260904132223 65 151 1.7 7.8 0.00 0.00 0.00 60 1016.1
20260904131722 66 126 1.7 7.8 0.00 0.00 0.00 60 1016.1
20260904131438 65 113 1.7 6.1 0.00 0.00 0.00 63 1016.1
20260904130649 65 187 1.7 6.1 0.00 0.00 0.00 63 1016.3
20260904130148 65 126 2.6 7.0 0.00 0.00 0.00 67 1016.3
20260904125621 65 97 2.6 7.0 0.00 0.00 0.00 71 1016.5
20260904125556 64 93 1.7 5.2 0.00 0.00 0.00 69 1016.6
20260904124532 64 177 1.7 3.5 0.00 0.00 0.00 71 1016.7
20260904124024 64 222 0.9 7.0 0.00 0.00 0.00 72 1016.6
20260904123523 63 177 1.7 7.0 0.00 0.00 0.00 82 1016.7
20260904123252 63 115 2.6 7.0 0.00 0.00 0.00 80 1016.6
20260904122519 63 137 2.6 7.0 0.00 0.00 0.00 82 1016.7
20260904122015 62 85 1.7 5.2 0.00 0.00 0.00 85 1016.8
20260904121450 62 60 0.9 3.5 0.00 0.00 0.00 87 1016.7
20260904120931 61 128 2.6 3.5 0.00 0.00 0.00 88 1016.5
20260904120923 61 39 1.7 3.5 0.00 0.00 0.00 88 1016.7
20260904120127 60 98 1.7 5.2 0.00 0.00 0.00 88 1016.4
20260904115330 60 110 2.6 5.2 0.00 0.00 0.00 88 1016.5
20260904114819 60 102 1.7 4.3 0.00 0.00 0.00 89 1016.4
20260904114319 60 120 0.9 2.6 0.00 0.00 0.00 92 1016.5
20260904114027 60 103 0.9 2.6 0.00 0.00 0.00 94 1016.5
20260904113247 59 150 0.9 2.6 0.00 0.00 0.00 95 1016.5
20260904112736 59 127 0.9 2.6 0.00 0.00 0.00 96 1016.3
20260904112208 59 114 0.9 2.6 0.00 0.00 0.00 97 1016.3
20260904111707 58 120 0.9 2.6 0.00 0.00 0.00 98 1016.3
20260904111135 58 158 0.0 1.7 0.00 0.00 0.00 98 1016.5
20260904110634 58 303 0.0 0.9 0.00 0.00 0.00 98 1016.4
20260904110110 57 303 0.0 0.0 0.00 0.00 0.00 98 1016.4
20260904105600 56 303 0.0 0.0 0.00 0.00 0.00 97 1016.4
20260904105036 55 303 0.0 0.9 0.00 0.00 0.00 97 1016.5
20260904104742 55 303 0.0 0.9 0.00 0.00 0.00 96 1016.5
20260904103943 54 303 0.0 0.0 0.00 0.00 0.00 96 1016.4
20260904103441 54 303 0.0 0.0 0.00 0.00 0.00 96 1016.5
20260904102939 54 303 0.0 0.0 0.00 0.00 0.00 95 1016.3
20260904102430 54 303 0.0 0.0 0.00 0.00 0.00 95 1016.3
20260904101918 54 303 0.0 0.0 0.00 0.00 0.00 95 1016.4
20260904101419 54 303 0.0 0.0 0.00 0.00 0.00 95 1016.3
20260904100928 54 303 0.0 0.0 0.00 0.00 0.00 94 1016.2
20260904100919 54 303 0.0 0.0 0.00 0.00 0.00 94 1016.3
20260904095909 54 303 0.0 0.0 0.00 0.00 0.00 94 1016.0
20260904095407 54 303 0.0 0.0 0.00 0.00 0.00 94 1016.0
20260904094906 54 303 0.0 0.0 0.00 0.00 0.00 93 1016.0
20260904094404 55 303 0.0 0.0 0.00 0.00 0.00 93 1015.8
20260904094129 55 303 0.0 0.0 0.00 0.00 0.00 93 1015.7
20260904093559 55 303 0.0 0.0 0.00 0.00 0.00 93 1015.7
20260904092825 56 303 0.0 0.0 0.00 0.00 0.00 93 1015.7
20260904092529 56 303 0.0 0.0 0.00 0.00 0.00 92 1015.3
20260904091738 56 303 0.0 0.0 0.00 0.00 0.00 92 1015.3
20260904091237 56 303 0.0 0.0 0.00 0.00 0.00 92 1015.3
20260904090942 57 303 0.0 0.9 0.00 0.00 0.00 92 1015.2
20260904090147 57 303 0.9 1.7 0.00 0.00 0.00 92 1015.3
20260904085646 58 303 0.9 1.7 0.00 0.00 0.00 92 1015.2
20260904085144 58 262 0.0 0.9 0.00 0.00 0.00 93 1015.0
20260904084621 58 262 0.0 0.9 0.00 0.00 0.00 92 1014.9
20260904084121 58 262 0.0 0.9 0.00 0.00 0.00 92 1015.0
20260904083853 59 262 0.0 0.9 0.00 0.00 0.00 92 1015.0
20260904083341 59 262 0.0 0.9 0.00 0.00 0.00 93 1015.0
20260904082609 59 262 0.0 0.9 0.00 0.00 0.00 92 1015.1
20260904082106 59 262 0.0 0.9 0.00 0.00 0.00 93 1014.8
20260904081605 59 262 0.0 0.9 0.00 0.00 0.00 92 1014.9
20260904081039 59 262 0.0 0.9 0.00 0.00 0.00 92 1014.8
20260904080517 59 262 0.0 0.9 0.00 0.00 0.00 92 1014.7
20260904080015 59 262 0.0 0.9 0.00 0.00 0.00 92 1014.8
20260904075746 59 262 0.0 1.7 0.00 0.00 0.00 93 1014.8
20260904075015 59 262 0.0 1.7 0.00 0.00 0.00 92 1014.8
20260904074512 59 256 0.0 1.7 0.00 0.00 0.00 92 1014.6
20260904074010 59 217 0.0 1.7 0.00 0.00 0.00 92 1014.4
20260904073510 59 217 0.0 0.0 0.00 0.00 0.00 93 1014.6
20260904072945 59 177 0.0 0.9 0.00 0.00 0.00 92 1014.6
20260904072648 59 177 0.0 0.9 0.00 0.00 0.00 92 1014.6
20260904071913 59 266 0.9 1.7 0.00 0.00 0.00 92 1014.4
20260904071409 59 266 0.9 1.7 0.00 0.00 0.00 92 1014.5
20260904070904 59 220 0.9 2.6 0.00 0.00 0.00 92 1014.4
20260904070400 59 258 0.9 2.6 0.00 0.00 0.00 92 1014.2
20260904065837 59 263 1.7 2.6 0.00 0.00 0.00 92 1014.3
20260904065312 59 267 0.9 2.6 0.00 0.00 0.00 92 1014.2
20260904064744 59 257 0.9 2.6 0.00 0.00 0.00 92 1014.0
20260904064511 59 239 0.9 1.7 0.00 0.00 0.00 91 1013.8
20260904063738 59 233 0.0 1.7 0.00 0.00 0.00 91 1013.7
20260904063211 59 233 0.0 1.7 0.00 0.00 0.00 91 1013.6
20260904062704 59 234 0.0 1.7 0.00 0.00 0.00 91 1013.7
20260904062140 59 232 0.9 1.7 0.00 0.00 0.00 91 1013.7
20260904061615 59 138 0.0 1.7 0.00 0.00 0.00 91 1013.7
20260904061345 60 41 0.0 1.7 0.00 0.00 0.00 91 1013.6
20260904060609 60 253 0.0 3.5 0.00 0.00 0.00 91 1013.7
20260904060107 60 253 0.9 3.5 0.00 0.00 0.00 91 1013.7
20260904055606 60 243 1.7 5.2 0.00 0.00 0.00 91 1013.8
20260904055107 60 217 1.7 5.2 0.00 0.00 0.00 91 1013.8
20260904054542 60 242 1.7 3.5 0.00 0.00 0.00 91 1013.6
20260904054043 60 263 1.7 3.5 0.00 0.00 0.00 91 1013.6
20260904053541 60 231 1.7 3.5 0.00 0.00 0.00 91 1013.3
20260904053314 60 252 1.7 4.3 0.00 0.00 0.00 91 1013.4
20260904052524 60 246 0.9 4.3 0.00 0.00 0.00 91 1013.3
20260904052025 60 217 0.9 2.6 0.00 0.00 0.00 91 1013.2
20260904051519 60 246 0.9 2.6 0.00 0.00 0.00 91 1013.2
20260904050950 60 255 0.9 2.6 0.00 0.00 0.00 90 1013.2
20260904050427 60 261 0.9 3.5 0.00 0.00 0.00 91 1013.4
20260904045827 60 201 0.9 3.5 0.00 0.00 0.00 90 1013.2
20260904045325 60 253 1.7 3.5 0.00 0.00 0.00 90 1013.2
20260904044759 60 247 1.7 3.5 0.00 0.00 0.00 91 1013.4
20260904044228 60 220 0.9 1.7 0.00 0.00 0.00 91 1013.1
20260904043701 60 106 0.9 2.6 0.00 0.00 0.00 90 1013.0
20260904043156 60 46 0.9 2.6 0.00 0.00 0.00 90 1013.2
20260904042644 60 64 0.9 2.6 0.00 0.00 0.00 90 1013.1
20260904042411 60 106 0.9 1.7 0.00 0.00 0.00 90 1013.2
20260904041637 60 177 0.9 2.6 0.00 0.00 0.00 90 1013.4
20260904041113 60 167 0.9 2.6 0.00 0.00 0.00 90 1013.3
20260904040542 61 238 1.7 3.5 0.00 0.00 0.00 90 1013.3
20260904040040 60 243 1.7 3.5 0.00 0.00 0.00 90 1013.3
20260904035511 60 81 0.9 3.5 0.00 0.00 0.00 90 1013.1
20260904034946 61 130 0.9 3.5 0.00 0.00 0.00 90 1013.6
20260904034416 61 140 1.7 3.5 0.00 0.00 0.00 90 1013.3
20260904034146 61 161 1.7 3.5 0.00 0.00 0.00 90 1013.2
20260904033403 61 154 1.7 3.5 0.00 0.00 0.00 90 1013.1
20260904032902 61 243 0.9 3.5 0.00 0.00 0.00 90 1013.4
20260904032348 61 247 0.9 3.5 0.00 0.00 0.00 90 1013.4
20260904031851 61 158 0.9 3.5 0.00 0.00 0.00 90 1013.2
20260904031323 61 132 0.9 3.5 0.00 0.00 0.00 90 1013.2
20260904030824 61 285 0.9 3.5 0.00 0.00 0.00 90 1013.3
20260904030305 61 231 0.9 2.6 0.00 0.00 0.00 90 1013.0
20260904025759 61 216 0.9 6.1 0.00 0.00 0.00 90 1013.1
20260904025259 61 160 1.7 6.1 0.00 0.00 0.00 90 1012.9
20260904024757 61 133 1.7 7.8 0.00 0.00 0.00 89 1013.0
20260904024256 61 210 1.7 7.8 0.00 0.00 0.00 89 1012.8
20260904023730 61 106 1.7 6.1 0.00 0.00 0.00 89 1012.7
20260904023227 62 145 1.7 6.1 0.00 0.00 0.00 89 1012.8
20260904022655 62 131 1.7 4.3 0.00 0.00 0.00 89 1012.5
20260904022359 62 145 1.7 6.1 0.00 0.00 0.00 89 1012.5
20260904021625 62 133 2.6 6.1 0.00 0.00 0.00 88 1012.7
20260904021346 62 122 1.7 4.3 0.00 0.00 0.00 88 1012.7
20260904020612 63 139 1.7 4.3 0.00 0.00 0.00 88 1012.8
20260904020109 63 124 3.5 8.7 0.00 0.00 0.00 88 1012.7
20260904015605 63 114 3.5 8.7 0.00 0.00 0.00 87 1012.4
20260904015047 64 112 1.7 4.3 0.00 0.00 0.00 87 1012.2
20260904014752 64 93 1.7 4.3 0.00 0.00 0.00 87 1012.2
20260904014240 65 99 2.6 6.1 0.00 0.00 0.00 86 1012.1
20260904013739 65 149 2.6 7.8 0.00 0.00 0.00 86 1012.0
20260904012942 65 244 2.6 6.1 0.00 0.00 0.00 86 1011.8
20260904012428 66 108 1.7 5.2 0.00 0.00 0.00 87 1011.7
20260904011930 66 228 1.7 3.5 0.00 0.00 0.00 86 1011.9
20260904011403 67 143 1.7 3.5 0.00 0.00 0.00 86 1011.7
20260904010859 67 126 3.5 7.8 0.00 0.00 0.00 86 1011.5
20260904010348 67 116 4.3 7.8 0.00 0.00 0.00 85 1011.4
20260904005839 68 101 2.6 7.8 0.00 0.00 0.00 85 1011.3
20260904005337 68 87 1.7 6.1 0.00 0.00 0.00 86 1011.5
20260904004827 68 72 1.7 6.1 0.00 0.00 0.00 86 1011.6
20260904004328 68 135 1.7 4.3 0.00 0.00 0.00 87 1012.0
20260904003802 69 226 0.0 4.3 0.00 0.00 0.00 88 1012.1
20260904003250 69 236 0.0 0.0 0.00 0.00 0.00 89 1011.7
20260904003025 69 195 0.0 0.0 0.00 0.00 0.00 88 1011.6
20260904002235 69 195 0.0 0.0 0.00 0.00 0.00 88 1011.4
20260904001734 69 195 0.0 0.0 0.00 0.00 0.00 87 1011.5
20260904001228 69 195 0.0 1.7 0.00 0.00 0.00 86 1011.3
20260904000707 69 187 0.0 1.7 0.00 0.00 0.00 86 1011.2
20260904000700 69 195 0.9 1.7 0.00 0.00 0.00 86 1011.3
20260903235653 69 287 0.0 1.7 0.00 0.00 0.00 86 1011.1
20260903235149 69 316 0.0 1.7 0.00 0.00 0.00 85 1011.2
20260903234645 70 316 0.0 0.9 0.00 0.00 0.00 85 1010.9
20260903234143 70 316 0.0 0.9 0.00 0.00 0.00 84 1011.0
20260903233637 70 316 0.0 1.7 0.00 0.00 0.00 84 1010.9
20260903233135 70 316 0.9 1.7 0.00 0.00 0.00 83 1010.8
20260903232839 70 43 0.9 1.7 0.00 0.00 0.00 83 1010.8
20260903232106 70 18 0.0 1.7 0.00 0.00 0.00 82 1010.9
20260903231609 71 264 0.9 3.5 0.00 0.00 0.00 83 1011.0
20260903231323 71 264 0.9 3.5 0.00 0.00 0.00 82 1011.0
20260903230552 71 266 0.0 2.6 0.00 0.00 0.00 82 1011.0
20260903230054 71 235 0.0 0.0 0.00 0.00 0.00 82 1010.8
20260903225527 71 235 0.0 0.0 0.00 0.00 0.00 82 1010.6
20260903225011 72 235 0.0 1.7 0.00 0.00 0.00 79 1010.6
20260903224511 72 235 0.0 1.7 0.00 0.00 0.00 79 1010.3
20260903224009 72 96 0.0 1.7 0.00 0.00 0.00 78 1010.3
20260903223456 73 96 0.0 1.7 0.00 0.00 0.00 78 1010.2
20260903223226 73 275 0.0 1.7 0.00 0.00 0.00 76 1010.2
20260903222452 74 332 0.0 0.0 0.00 0.00 0.00 75 1010.1
20260903221927 74 332 0.0 1.7 0.00 0.00 0.00 73 1009.9
20260903221421 74 332 0.0 1.7 0.00 0.00 0.00 74 1009.8
20260903220917 75 292 0.0 1.7 0.00 0.00 0.00 74 1009.9
20260903220352 75 292 0.0 1.7 0.00 0.00 0.00 72 1009.9
20260903215824 76 292 0.9 1.7 0.00 0.00 0.00 69 1009.8
20260903215317 76 292 0.9 2.6 0.00 0.00 0.00 69 1009.7
20260903215023 76 258 0.9 3.5 0.00 0.00 0.00 67 1009.7
20260903214248 76 243 0.9 3.5 0.00 0.00 0.00 65 1009.6
20260903213748 77 211 0.9 1.7 0.00 0.00 0.00 66 1009.5
20260903213249 78 267 0.9 2.6 0.00 0.00 0.00 66 1009.6
20260903212749 78 270 0.9 3.5 0.00 0.00 0.00 63 1009.5
20260903212237 78 214 1.7 4.3 0.00 0.00 0.00 60 1009.5
20260903211735 78 224 0.9 4.3 0.00 0.00 0.00 58 1009.2
20260903211231 79 248 0.9 2.6 0.00 0.00 0.00 58 1009.2
20260903210932 79 278 0.9 3.5 0.00 0.00 0.00 60 1009.2
20260903210158 79 270 0.9 3.5 0.00 0.00 0.00 59 1009.0
20260903205656 80 204 0.9 3.5 0.00 0.00 0.00 56 1009.0
20260903205132 80 254 0.9 3.5 0.00 0.00 0.00 55 1008.9
20260903204621 80 262 1.7 7.0 0.00 0.00 0.00 56 1008.9
20260903204120 80 316 1.7 7.0 0.00 0.00 0.00 54 1008.9
20260903203606 81 270 1.7 6.1 0.00 0.00 0.00 55 1008.7
20260903203111 81 243 1.7 3.5 0.00 0.00 0.00 54 1008.6
20260903202600 81 292 1.7 5.2 0.00 0.00 0.00 55 1008.5
20260903202058 82 257 1.7 5.2 0.00 0.00 0.00 54 1008.6
20260903201540 82 237 1.7 6.1 0.00 0.00 0.00 55 1008.7
20260903201017 83 289 1.7 6.1 0.00 0.00 0.00 53 1008.5
20260903200446 83 237 1.7 7.0 0.00 0.00 0.00 53 1008.4
20260903195944 83 350 0.9 7.0 0.00 0.00 0.00 53 1008.4
20260903195442 83 268 0.0 5.2 0.00 0.00 0.00 53 1008.3
20260903194945 82 187 0.9 2.6 0.00 0.00 0.00 54 1008.3
20260903194441 82 253 0.9 5.2 0.00 0.00 0.00 54 1008.3
20260903193942 82 245 0.9 6.1 0.00 0.00 0.00 52 1008.3
20260903193415 82 160 2.6 10.4 0.00 0.00 0.00 51 1008.3
20260903192849 82 294 2.6 10.4 0.00 0.00 0.00 53 1008.2
20260903192337 82 353 2.6 9.6 0.00 0.00 0.00 53 1008.1
20260903191811 82 338 2.6 6.1 0.00 0.00 0.00 53 1008.1
20260903191300 82 317 2.6 12.2 0.00 0.00 0.00 51 1008.0
20260903190801 82 285 3.5 12.2 0.00 0.00 0.00 49 1008.0
20260903190230 82 269 1.7 11.3 0.00 0.00 0.00 50 1008.0
20260903185729 82 333 0.0 6.1 0.00 0.00 0.00 54 1008.1
20260903185224 82 333 0.0 6.1 0.00 0.00 0.00 56 1008.1
20260903184720 82 237 1.7 6.1 0.00 0.00 0.00 53 1008.2
20260903184219 82 278 1.7 6.1 0.00 0.00 0.00 52 1008.3
20260903183655 82 291 1.7 6.1 0.00 0.00 0.00 54 1008.3
20260903183127 83 276 1.7 6.1 0.00 0.00 0.00 54 1008.4
20260903182604 83 342 2.6 7.8 0.00 0.00 0.00 51 1008.3
20260903182033 83 240 2.6 7.8 0.00 0.00 0.00 50 1008.3
20260903181523 83 347 1.7 7.0 0.00 0.00 0.00 49 1008.4
20260903181010 83 303 1.7 6.1 0.00 0.00 0.00 49 1008.5
20260903180508 83 271 0.9 6.1 0.00 0.00 0.00 50 1008.5